KUIPER-00241

导读 | 豆包AI

KUIPER-00241是美国亚马逊柯伊伯低轨互联网星座中的一颗卫星,于2025年12月15日发射。该星座旨在为全球提供高速低延迟天基互联网服务,采用先进相控阵天线与激光星间链路技术,可按需灵活分配通信容量。 作为组网卫星,它工作于近地轨道,配备Ka频段通信系统,配合地面基础设施,可实现覆盖全球的宽带接入,满足视频、云服务等多场景需求,助力亚马逊构建天地融合的太空通信与云服务网络。

基本信息
目录编号:
67149
目录名称:
KUIPER-00241
国际标识:
2025-301S
轨道中心:
EARTH
卫星名称:
KUIPER-00241
卫星全名:
KUIPER-00241
卫星状态:
在轨 (已飞行78 天)
发射日期:
2025-12-15 UTC
国别 :
美国 (US)
星等 :
--
轨道信息
数据来源 国际轨道数据
星历时间: 2026-03-03T04:00:02+0800
8小时前
查看轨道信息
半长轴: 7005.552km
偏心率: 0.0000775
轨道倾角: 51.902°
近地点辐角 39.666°
升交点赤经 105.936°
平近点角 168.467°
近地点: 626.872km
远地点: 627.958km
周期: 97.258分钟
每日圈数: 14.806053
详细信息
使用方式:
暂无
2D轨道图
3D轨道图
轨道高度分析图
轨道倾角分析图
轨道综合分析图
查看轨道综合分析图